When you browse on this site, cookies collect data to enhance your experience and personalize the content and advertising you see.
Visit our Privacy Policy to learn more. By continuing to use the site, you agree to this use of cookies and data.
  • In Romania
  • List of Countries
  • For 7 days
  • Water Temperature
  • Satellite Maps
  • Weather Map
  • Weather Widgets
  • user-avatar
    Login

    Hourly Weather Knyazhevo

    Today, 23 July, Tuesday

    Time Temperature Precipitation Wind Pressure Humidity
    00:00 +17°C° 0 mm 2 mps 742 mmHg 82%
    01:00 +17°C° 0 mm 2 mps 742 mmHg 84%
    02:00 +17°C° 0 mm 2 mps 742 mmHg 86%
    03:00 +17°C° 0 mm 2 mps 742 mmHg 92%
    04:00 +17°C° 1 mm 2 mps 741 mmHg 93%
    05:00 +17°C° 1 mm 3 mps 741 mmHg 94%
    06:00 +17°C° 1 mm 3 mps 741 mmHg 95%
    07:00 +18°C° 1 mm 4 mps 741 mmHg 94%
    08:00 +18°C° 1 mm 4 mps 740 mmHg 93%
    09:00 +17°C° 1 mm 5 mps 740 mmHg 93%
    10:00 +19°C° 0.5 mm 5 mps 740 mmHg 90%
    11:00 +20°C° 0.5 mm 6 mps 740 mmHg 88%
    12:00 +21°C° 0.5 mm 6 mps 740 mmHg 85%
    13:00 +21°C° 1.4 mm 6 mps 740 mmHg 84%
    14:00 +21°C° 1.4 mm 5 mps 740 mmHg 84%
    15:00 +22°C° 1.4 mm 5 mps 740 mmHg 83%
    16:00 +22°C° 0.5 mm 4 mps 740 mmHg 83%
    17:00 +22°C° 0.5 mm 4 mps 740 mmHg 84%
    18:00 +22°C° 0.5 mm 3 mps 740 mmHg 84%
    19:00 +20°C° 0.1 mm 3 mps 739 mmHg 87%
    20:00 +19°C° 0.1 mm 3 mps 739 mmHg 90%
    21:00 +18°C° 0.1 mm 3 mps 739 mmHg 93%
    22:00 +17°C° 0 mm 2 mps 739 mmHg 93%
    23:00 +17°C° 0 mm 2 mps 739 mmHg 94%

    Tomorrow, 24 July, Wednesday

    Time Temperature Precipitation Wind Pressure Humidity
    00:00 +16°C° 0 mm 2 mps 739 mmHg 94%
    01:00 +16°C° 0 mm 2 mps 739 mmHg 94%
    02:00 +16°C° 0 mm 2 mps 739 mmHg 94%
    03:00 +15°C° 0 mm 1 mps 739 mmHg 94%
    04:00 +16°C° 0 mm 1 mps 739 mmHg 94%
    05:00 +16°C° 0 mm 1 mps 739 mmHg 93%
    06:00 +16°C° 0 mm 1 mps 740 mmHg 93%
    07:00 +19°C° 0.3 mm 1 mps 740 mmHg 91%
    08:00 +20°C° 0.3 mm 1 mps 740 mmHg 88%
    09:00 +20°C° 0.3 mm 2 mps 740 mmHg 85%
    10:00 +20°C° 1 mm 2 mps 740 mmHg 83%
    11:00 +20°C° 1 mm 2 mps 740 mmHg 80%
    12:00 +21°C° 1 mm 2 mps 740 mmHg 78%
    13:00 +20°C° 0.3 mm 2 mps 740 mmHg 80%
    14:00 +20°C° 0.3 mm 3 mps 740 mmHg 82%
    15:00 +20°C° 0.3 mm 3 mps 740 mmHg 84%
    16:00 +20°C° 0.1 mm 3 mps 740 mmHg 84%
    17:00 +20°C° 0.1 mm 2 mps 740 mmHg 83%
    18:00 +20°C° 0.1 mm 2 mps 740 mmHg 82%
    19:00 +19°C° 0.3 mm 2 mps 740 mmHg 85%
    20:00 +18°C° 0.3 mm 2 mps 740 mmHg 89%
    21:00 +17°C° 0.3 mm 2 mps 740 mmHg 92%
    22:00 +17°C° 0 mm 2 mps 740 mmHg 92%
    23:00 +16°C° 0 mm 1 mps 740 mmHg 92%

    Day after tomorrow, 25 July, Thursday

    Time Temperature Precipitation Wind Pressure Humidity
    00:00 +16°C° 0 mm 1 mps 740 mmHg 92%
    01:00 +16°C° 0 mm 1 mps 740 mmHg 92%
    02:00 +16°C° 0 mm 1 mps 740 mmHg 92%
    03:00 +16°C° 0 mm 1 mps 740 mmHg 92%
    04:00 +15°C° 0 mm 0 mps 740 mmHg 92%
    05:00 +15°C° 0 mm 0 mps 741 mmHg 92%
    06:00 +15°C° 0 mm 0 mps 741 mmHg 92%
    07:00 +18°C° 0 mm 1 mps 741 mmHg 89%
    08:00 +19°C° 0 mm 1 mps 741 mmHg 86%
    09:00 +20°C° 0 mm 1 mps 741 mmHg 83%
    10:00 +20°C° 0.2 mm 2 mps 741 mmHg 80%
    11:00 +21°C° 0.2 mm 2 mps 741 mmHg 78%
    12:00 +22°C° 0.2 mm 3 mps 741 mmHg 76%
    13:00 +22°C° 0.9 mm 3 mps 741 mmHg 77%
    14:00 +22°C° 0.9 mm 3 mps 741 mmHg 79%
    15:00 +22°C° 0.9 mm 3 mps 741 mmHg 80%
    16:00 +21°C° 1 mm 4 mps 741 mmHg 83%
    17:00 +21°C° 1 mm 4 mps 741 mmHg 85%
    18:00 +20°C° 1 mm 5 mps 741 mmHg 88%
    19:00 +20°C° 0.1 mm 4 mps 741 mmHg 90%
    20:00 +19°C° 0.1 mm 4 mps 741 mmHg 92%
    21:00 +18°C° 0.1 mm 4 mps 741 mmHg 94%
    22:00 +17°C° 0.1 mm 3 mps 741 mmHg 94%
    23:00 +17°C° 0.1 mm 3 mps 742 mmHg 95%

    26 July, Friday

    Time Temperature Precipitation Wind Pressure Humidity
    00:00 +17°C° 0.1 mm 3 mps 742 mmHg 96%
    01:00 +17°C° 0.4 mm 3 mps 742 mmHg 96%
    02:00 +17°C° 0.4 mm 3 mps 742 mmHg 96%
    03:00 +17°C° 0.4 mm 4 mps 742 mmHg 97%
    04:00 +17°C° 0.6 mm 3 mps 742 mmHg 97%
    05:00 +17°C° 0.6 mm 3 mps 742 mmHg 97%
    06:00 +17°C° 0.6 mm 3 mps 742 mmHg 97%
    07:00 +18°C° 0.1 mm 4 mps 742 mmHg 94%
    08:00 +19°C° 0.1 mm 4 mps 742 mmHg 91%
    09:00 +21°C° 0.1 mm 5 mps 742 mmHg 88%
    10:00 +22°C° 0.1 mm 5 mps 742 mmHg 84%
    11:00 +23°C° 0.1 mm 6 mps 742 mmHg 79%
    12:00 +24°C° 0.1 mm 6 mps 742 mmHg 74%
    13:00 +24°C° 0.5 mm 6 mps 742 mmHg 75%
    14:00 +24°C° 0.5 mm 6 mps 741 mmHg 76%
    15:00 +24°C° 0.5 mm 6 mps 741 mmHg 76%
    16:00 +23°C° 0.8 mm 5 mps 741 mmHg 79%
    17:00 +22°C° 0.8 mm 5 mps 741 mmHg 81%
    18:00 +22°C° 0.8 mm 4 mps 741 mmHg 84%
    19:00 +21°C° 0.3 mm 4 mps 741 mmHg 86%
    20:00 +20°C° 0.3 mm 3 mps 741 mmHg 89%
    21:00 +19°C° 0.3 mm 3 mps 741 mmHg 91%
    22:00 +19°C° 0 mm 3 mps 741 mmHg 92%
    23:00 +18°C° 0 mm 4 mps 741 mmHg 93%

    27 July, Saturday

    Time Temperature Precipitation Wind Pressure Humidity
    00:00 +18°C° 0 mm 4 mps 740 mmHg 94%
    01:00 +17°C° 0 mm 4 mps 740 mmHg 95%
    02:00 +17°C° 0 mm 3 mps 740 mmHg 95%
    03:00 +17°C° 0 mm 3 mps 740 mmHg 96%
    04:00 +17°C° 0 mm 3 mps 740 mmHg 96%
    05:00 +17°C° 0 mm 3 mps 740 mmHg 96%
    06:00 +17°C° 0 mm 4 mps 740 mmHg 96%
    07:00 +19°C° 0 mm 4 mps 740 mmHg 92%
    08:00 +20°C° 0 mm 5 mps 740 mmHg 89%
    09:00 +21°C° 0 mm 5 mps 740 mmHg 85%
    10:00 +22°C° 0.2 mm 5 mps 740 mmHg 81%
    11:00 +23°C° 0.2 mm 6 mps 740 mmHg 78%
    12:00 +24°C° 0.2 mm 6 mps 740 mmHg 74%
    13:00 +25°C° 0.2 mm 5 mps 739 mmHg 72%
    14:00 +25°C° 0.2 mm 5 mps 739 mmHg 70%
    15:00 +26°C° 0.2 mm 4 mps 739 mmHg 69%
    16:00 +26°C° 0.2 mm 4 mps 738 mmHg 71%
    17:00 +26°C° 0.2 mm 3 mps 738 mmHg 73%
    18:00 +25°C° 0.2 mm 2 mps 738 mmHg 75%
    19:00 +24°C° 0.1 mm 2 mps 738 mmHg 80%
    20:00 +21°C° 0.1 mm 2 mps 738 mmHg 84%
    21:00 +19°C° 0.1 mm 2 mps 738 mmHg 88%
    22:00 +19°C° 0 mm 2 mps 738 mmHg 90%
    23:00 +19°C° 0 mm 2 mps 737 mmHg 91%

    28 July, Sunday

    Time Temperature Precipitation Wind Pressure Humidity
    00:00 +18°C° 0 mm 2 mps 737 mmHg 92%
    01:00 +18°C° 0 mm 2 mps 737 mmHg 93%
    02:00 +17°C° 0 mm 3 mps 736 mmHg 93%
    03:00 +17°C° 0 mm 3 mps 736 mmHg 93%
    04:00 +17°C° 0 mm 3 mps 736 mmHg 93%
    05:00 +17°C° 0 mm 4 mps 736 mmHg 93%
    06:00 +17°C° 0 mm 4 mps 736 mmHg 93%
    07:00 +16°C° 0.2 mm 5 mps 736 mmHg 92%
    08:00 +16°C° 0.2 mm 6 mps 736 mmHg 91%
    09:00 +16°C° 0.2 mm 7 mps 736 mmHg 90%
    10:00 +16°C° 0 mm 7 mps 736 mmHg 85%
    11:00 +16°C° 0 mm 7 mps 737 mmHg 80%
    12:00 +16°C° 0 mm 7 mps 737 mmHg 76%
    13:00 +16°C° 0 mm 7 mps 737 mmHg 73%
    14:00 +16°C° 0 mm 7 mps 737 mmHg 70%
    15:00 +16°C° 0 mm 7 mps 737 mmHg 66%
    16:00 +15°C° 0 mm 7 mps 738 mmHg 68%
    17:00 +14°C° 0 mm 7 mps 738 mmHg 69%
    18:00 +12°C° 0 mm 7 mps 738 mmHg 70%
    19:00 +11°C° 0 mm 6 mps 738 mmHg 68%
    20:00 +10°C° 0 mm 5 mps 738 mmHg 67%
    21:00 +9°C° 0 mm 5 mps 738 mmHg 65%
    22:00 +9°C° 0 mm 5 mps 739 mmHg 66%
    23:00 +10°C° 0 mm 4 mps 739 mmHg 67%
    Show more